Location: Huntsville
(34.7300°N, 86.5860°W)
Time: 09:28:37
(UTC-05:00)

Daily predictions for brighter satellites

Satellite Brightness Start Highest point End
(mag) Time Altitude Azimuth Time Altitude Azimuth Time Altitude Azimuth
Hubble Space Telescope 2.8 20:32:58 10° S 20:34:31 12° SSE 20:36:03 10° SE
Cosmos 1437 4.2 20:32:18 10° SE 20:34:49 20° E 20:37:19 10° NE
H-2A R/B 2.8 20:32:57 10° S 20:36:48 85° WSW 20:40:37 10° NNW
Cosmos 1151 Rocket 4.1 20:33:27 10° NNE 20:37:12 28° ENE 20:40:57 10° SE
USA 186 1.8 20:41:05 10° S 20:43:15 48° W 20:45:29 10° NNW
CZ-2D R/B 4.1 20:39:53 10° S 20:43:40 52° W 20:47:27 10° NNW
COSMOS 2428 4.3 20:40:58 10° N 20:45:10 21° ENE 20:49:19 10° ESE
ERS-1 Rocket 3.2 20:40:30 10° SSE 20:45:24 55° ENE 20:50:20 10° N
Cosmos 1437 Rocket 2.9 20:42:27 10° N 20:46:13 52° E 20:49:59 10° SSE
Envisat 3.9 20:42:39 10° SE 20:47:10 34° ENE 20:51:42 10° N
Cosmos 2266 Rocket 4.1 20:41:14 10° SSE 20:47:21 56° E 20:53:25 10° NNE
Cosmos 1939 Rocket 3.6 20:44:43 10° SE 20:48:18 34° ENE 20:51:49 10° N
Cosmos 2219 Rocket 4.4 20:47:47 10° NE 20:48:51 10° NE 20:49:56 10° ENE
Cosmos 1553 Rocket 4.2 20:49:32 10° N 20:55:55 80° W 21:02:11 10° S
ATLAS CENTAUR R/B 3.9 20:53:51 10° WNW 20:56:44 18° WSW 20:59:29 10° SSW
NOSS 3-1 (C) 3.4 20:53:42 10° SSW 20:59:18 56° ESE 21:05:23 10° NE
OTV 4 1.3 20:59:50 10° SW 21:02:27 28° SSE 21:04:07 17° ESE
OAO 2 Rocket 3.5 20:57:21 10° WSW 21:02:32 57° SSE 21:07:45 10° E
Meteor 2-20 4.5 20:56:23 10° S 21:02:32 89° W 21:08:42 10° N
Cosmos 1726 4.2 21:00:44 10° NE 21:02:34 13° ENE 21:03:46 12° E
ALOS 3.7 21:01:21 10° SSW 21:05:38 36° W 21:09:57 10° NNW
H-2A R/B 2.2 21:02:12 11° SSE 21:06:26 65° ENE 21:10:56 10° N
Meteor 2-2 Rocket 4.4 21:00:42 10° N 21:06:44 88° E 21:12:47 10° S
Cosmos 2298 Rocket 4.4 21:06:39 10° S 21:11:37 42° ESE 21:16:37 10° NNE
Cosmos 1328 3.8 21:09:13 10° S 21:13:06 62° E 21:17:00 10° NNE
Cosmos 2219 3.2 21:07:39 10° SSW 21:13:23 80° ESE 21:19:09 10° NNE
Tiangong 1 1.9 21:10:44 10° WSW 21:13:46 52° NNW 21:16:48 10° NE
Cosmos 2237 Rocket 4.3 21:19:18 10° NNE 21:22:06 14° NE 21:24:54 10° E
Cosmos 2322 Rocket 4.0 21:20:07 10° NW 21:24:45 27° WSW 21:29:23 10° SSW
DELTA 2 R/B (1) 3.5 21:19:23 10° WNW 21:24:57 85° SSW 21:28:40 22° ESE
Cosmos 2322 3.7 21:20:30 10° NNW 21:26:15 86° WSW 21:30:31 18° SSE
Aureole 3 4.4 21:19:56 10° S 21:26:48 85° E 21:32:16 10° N
MetOp-B 4.4 21:23:58 21° SE 21:27:26 52° ENE 21:32:37 10° N
Cosmos 1271 Rocket 4.5 21:25:21 10° NNE 21:27:58 17° ENE 21:28:32 17° E
Cosmos 1703 4.5 21:32:27 23° E 21:32:44 24° E 21:35:52 10° NE
CZ-4B R/B 3.7 21:27:38 10° NNE 21:32:45 51° E 21:36:13 19° S
Cosmos 2360 Rocket 2.3 21:27:37 10° NNW 21:33:16 73° WSW 21:37:26 19° S
SL-14 R/B 3.5 21:31:35 28° SSE 21:33:18 47° E 21:37:09 10° NNE
Nadezhda 2 Rocket 4.4 21:28:14 10° S 21:34:23 90° SW 21:40:31 10° N
Cosmos 405 4.1 21:31:37 10° NNW 21:35:05 43° W 21:37:53 14° SSW
SL-16 R/B 4.2 21:32:40 10° NW 21:37:00 23° W 21:41:19 10° SSW
H-2A R/B 3.7 21:36:57 16° E 21:38:55 19° ENE 21:42:41 10° NNE
PSLV R/B 3.0 21:38:58 44° SSE 21:39:50 85° ENE 21:42:54 10° N
Meteor 1-27 4.3 21:34:46 10° N 21:40:21 58° E 21:43:17 27° SSE
Cosmos 1626 4.4 21:41:26 13° ENE 21:41:26 13° ENE 21:42:26 10° NE
Cosmos 1680 Rocket 3.7 21:35:36 10° NNW 21:40:49 69° WSW 21:44:23 21° S
Cosmos 304 Rocket 4.3 21:39:32 10° NNW 21:44:14 55° WSW 21:47:23 20° S
SPOT 5 2.8 21:41:59 24° S 21:44:44 81° WSW 21:49:32 10° NNW
Delta 2 Rocket 2.9 21:43:57 10° W 21:47:35 77° N 21:48:40 41° E
Cosmos 2151 4.4 21:44:53 10° SSW 21:48:45 36° W 21:52:40 10° NNW
Cosmos 1898 Rocket 3.4 21:44:30 10° SSW 21:49:40 86° ESE 21:54:54 10° NNE
YAOGAN 6 2.5 21:50:10 48° SSE 21:51:03 73° ENE 21:54:39 10° N
SPOT 1/Viking Rocket 3.6 21:48:49 32° SE 21:51:05 60° ENE 21:56:10 10° N
Cosmos 858 Rocket 4.4 21:49:07 12° SSW 21:54:01 85° ESE 21:59:14 10° NNE
Cosmos 2227 Rocket 2.5 21:55:43 33° SSE 21:57:44 46° ESE 22:03:07 10° NE
Cosmos 2058 3.8 21:54:57 13° SSW 21:58:22 48° W 22:02:21 10° N
Cosmos 2150 Rocket 4.2 21:54:35 10° SSW 22:00:00 75° WNW 22:05:30 10° NNE
Cosmos 1300 2.8 21:58:58 10° N 22:02:48 71° W 22:03:49 46° SSW
NOSS 3-1 (A) 3.8 21:58:05 10° SW 22:03:50 62° NW 22:10:10 10° NNE
Sich 1 3.2 22:03:04 29° SSW 22:05:17 75° W 22:09:41 10° N
Cosmos 292 Rocket 3.9 22:03:01 10° N 22:07:42 56° ENE 22:08:39 46° ESE
Cosmos 2242 Rocket 3.6 22:04:01 10° N 22:08:29 67° E 22:09:21 53° SE
Cosmos 1633 Rocket 3.2 22:08:22 31° SSW 22:10:22 69° W 22:14:45 10° N
Landsat 7 4.2 22:10:20 41° E 22:11:08 45° ENE 22:15:39 10° N
USA 245 4.2 22:15:03 29° NNW 22:15:03 29° NNW 22:16:22 10° NNW
Hubble Space Telescope 3.1 22:11:40 10° SW 22:12:16 13° SW 22:12:16 13° SW
SL-16 R/B 4.1 22:12:52 10° NNE 22:16:27 17° NE 22:18:12 15° ENE
Cosmos 2333 Rocket 2.8 22:12:26 10° N 22:17:57 45° ENE 22:19:24 38° ESE
FALCON 9 R/B 4.1 21:49:25 10° W 22:21:15 89° S 22:27:16 19° E
ARGOS 3.1 22:22:16 44° S 22:24:03 79° WSW 22:29:29 10° NNW
Cosmos 2297 Rocket 2.3 22:23:49 50° SE 22:24:33 54° ESE 22:30:03 10° NNE
ERBS 3.3 22:22:41 16° WSW 22:25:15 47° NW 22:28:38 10° NNE
Cosmos 1455 3.2 22:21:38 10° N 22:24:28 35° NE 22:24:28 35° NE
DELTA 2 DEB (DPAF) 4.0 22:25:18 66° ESE 22:25:41 70° ENE 22:30:08 10° N
ATLAS 2AS CENTAUR R/B 2.8 22:19:45 16° SSW 22:25:50 72° ESE 22:33:46 10° NE
Terra 2.2 22:26:42 45° E 22:26:59 45° ENE 22:31:31 10° N
COSMOS 2428 3.3 22:24:12 10° NNW 22:29:39 50° WSW 22:31:38 35° SSW
Cosmos 2219 Rocket 2.1 22:28:01 10° NNW 22:33:39 83° ENE 22:34:43 60° SSE
DMSP B5D2-2 4.0 22:28:32 10° NNE 22:33:43 63° ESE 22:34:05 61° SE
Spot 4 4.4 22:34:28 42° ENE 22:34:36 42° ENE 22:39:10 10° N
USA 32 4.2 22:30:39 10° N 22:35:52 68° W 22:37:17 47° SSW
IGS 5A 4.1 22:36:26 46° NE 22:36:26 46° NE 22:39:59 10° N
Cosmos 1726 3.6 22:34:39 10° NNW 22:37:59 30° W 22:38:27 29° WSW
SL-08 RB Rocket 3.9 22:38:57 55° SW 22:39:25 58° W 22:43:52 10° NNW
ATLAS 3B R/B 3.7 22:36:40 10° NNW 22:42:54 34° NE 22:45:16 27° E
OAO 2 Rocket 3.3 22:42:00 10° W 22:47:21 88° N 22:48:06 67° E
Tiangong 1 3.7 22:48:27 10° NW 22:50:47 19° N 22:51:01 19° N
Cosmos 1869 4.0 22:47:26 10° N 22:50:34 50° NNE 22:50:34 50° NNE
Cosmos 1980 3.5 22:48:51 10° NNW 22:54:31 88° ENE 22:55:01 75° SSE
Meteor 1-4 Rocket 4.4 22:52:40 10° NW 22:55:32 25° W 22:55:32 25° W
BREEZE-M DEB (TANK) 4.3 23:01:00 34° NE 23:01:00 34° NE 23:05:05 10° NE
Nadezhda 1 Rocket 4.2 22:59:50 10° NNW 23:05:49 60° W 23:07:08 49° SW
Cosmos 2237 Rocket 2.1 23:01:06 10° NNW 23:06:49 79° WSW 23:07:04 77° SW
Cosmos 1626 4.1 23:16:08 26° WNW 23:16:08 26° WNW 23:18:49 10° NNW
H-2A R/B 2.7 23:17:35 47° WSW 23:17:52 47° W 23:23:07 10° NNW
NOSS 0 Rocket 4.4 23:15:00 10° NW 23:20:50 46° WSW 23:21:22 45° WSW
Cosmos 1269 Rocket 4.2 23:15:38 10° NNW 23:20:28 68° NNE 23:20:28 68° NNE
Cosmos 1709 Rocket 4.0 23:22:36 64° SW 23:23:20 71° W 23:29:26 10° N
Meteor 2-3 Rocket 4.4 23:25:13 43° ENE 23:25:13 43° ENE 23:29:44 10° NNE
Cosmos 2221 Rocket 4.5 23:21:17 10° N 23:24:36 47° N 23:24:36 47° N
SeaSat 1 3.8 23:26:25 30° NE 23:26:25 30° NE 23:30:32 10° N
NOSS 2-3 (C) 4.3 23:29:03 60° NNE 23:29:03 60° NNE 23:33:34 10° NNE
Lacrosse 4 Rocket 2.7 23:31:53 10° NNW 23:34:53 41° N 23:34:53 41° N
Cosmos 1125 Rocket 4.3 23:37:09 44° W 23:37:39 45° WNW 23:42:44 10° N
Cosmos 2227 Rocket 4.3 23:37:41 10° WSW 23:41:58 22° WNW 23:46:18 10° N
Cosmos 1048 Rocket 4.3 23:36:35 10° NNW 23:41:10 65° NNW 23:41:10 65° NNW
